Wind_Speed
18 24 21 19 19 18 19 19 18 18 16 16 16 14 13 11 9 7 7 8 8 9 8 7 10 12 12 11 10 7 6 6 7 8 9 10 10 9 8 8 9 5 4
27 25 22 20 19 19 19 19 18 18 18 18 16 13 12 11 10 9 9 9 9 10 10 9 11 11 13 11 9 7 6 8 9 8 8 9 10 8 7 5 7 7 6
32 26 23 22 20 19 19 18 18 18 17 17 17 13 13 12 11 10 10 11 11 10 10 11 13 13 11 9 7 5 7 10 8 9 8 8 9 7 6 6 5 4 3
31 27 25 23 22 19 17 17 17 17 17 16 16 16 14 12 11 11 11 11 11 10 9 9 9 9 8 6 6 9 10 9 7 7 8 8 9 7 7 4 2 2 2
31 29 26 23 21 18 17 16 16 16 17 18 17 18 14 13 12 12 11 11 11 9 8 7 7 6 6 7 8 9 7 6 5 6 6 10 7 6 6 6 5 3 0
31 30 27 24 22 19 16 14 14 16 17 19 18 18 16 14 12 12 11 11 11 9 8 8 8 8 9 8 7 7 4 4 3 3 7 8 6 6 7 7 12 9 3
31 29 27 24 21 18 16 15 16 17 17 19 20 18 16 15 13 11 10 10 10 9 8 7 7 8 9 8 6 4 3 2 3 7 7 4 4 7 7 7 8 7 7
31 29 26 23 20 18 16 17 17 18 17 19 19 18 17 16 14 11 9 9 9 8 8 7 8 8 6 5 4 2 3 4 5 6 6 5 3 6 5 6 8 11 13
28 28 26 23 20 18 16 17 18 19 19 19 19 20 19 17 15 13 10 9 9 8 9 8 7 6 6 4 4 4 3 3 4 6 5 5 5 5 6 6 9 11 12
28 27 27 24 22 20 18 17 20 21 20 20 21 20 18 17 15 13 12 11 9 9 9 7 6 5 6 5 3 3 3 4 4 5 5 5 6 6 8 10 10 10 9
23 27 28 26 24 22 20 19 20 21 20 20 21 19 16 15 16 16 15 12 11 10 10 8 7 7 6 5 3 3 3 3 2 3 5 8 8 10 11 11 11 11 10
23 26 26 25 27 25 23 21 21 23 22 21 21 19 16 14 14 19 16 13 11 10 9 8 7 7 5 5 3 1 0 2 3 5 8 7 10 9 8 6 10 9 9
28 26 29 28 29 28 27 24 23 23 25 24 22 21 18 16 16 18 16 14 12 12 11 10 9 7 5 4 3 2 1 1 5 8 9 8 9 7 6 8 9 9 8
28 29 31 31 31 32 30 29 27 26 26 27 26 24 22 20 19 19 18 16 14 13 12 11 9 7 5 4 3 2 2 4 7 8 8 9 9 9 9 8 8 8 8
22 26 30 32 32 34 34 31 30 29 29 28 28 27 25 23 21 21 19 17 15 14 13 11 10 6 5 3 2 2 3 6 9 9 8 9 9 9 9 8 7 8 7
31 33 33 34 34 35 37 35 33 32 30 29 29 30 28 26 24 22 20 18 16 15 13 12 10 8 6 4 3 3 4 6 8 9 8 8 7 7 7 7 6 7 7
28 31 34 36 35 37 38 37 35 34 32 32 30 28 28 28 26 24 24 21 19 17 15 14 11 8 7 6 6 6 5 7 9 9 8 7 6 6 6 6 6 6 6
20 22 32 35 36 39 39 38 37 37 36 35 32 30 29 26 26 25 26 22 21 19 18 15 11 9 8 7 7 8 7 7 10 10 9 6 6 5 4 2 3 4 5
27 26 25 31 36 39 40 40 38 39 38 37 32 32 31 30 29 26 26 25 23 21 20 16 14 10 8 6 7 7 7 7 10 12 10 8 6 4 2 1 2 3 5
30 31 25 28 32 38 39 38 37 36 38 37 36 34 33 34 32 30 28 27 27 25 21 19 15 12 9 7 8 7 6 7 10 11 10 9 7 5 4 2 1 3 6
22 28 28 25 31 37 32 31 30 35 38 40 38 37 35 35 35 34 32 30 30 28 25 21 15 13 9 9 9 6 5 5 9 10 11 10 9 7 6 4 3 6 7
24 21 20 26 27 37 35 38 31 38 36 42 43 40 37 36 37 39 37 33 33 31 25 24 20 15 8 12 6 5 1 2 7 8 10 11 10 10 8 5 4 7 8
29 28 26 22 20 31 38 34 30 27 27 34 38 39 40 38 38 42 39 37 37 35 32 29 27 23 15 11 11 5 2 4 2 5 7 9 10 10 8 4 6 8 10
26 27 25 22 21 21 32 35 34 33 25 36 41 43 40 40 39 42 41 41 40 38 34 32 28 25 20 16 11 9 5 5 3 1 5 8 10 10 7 7 8 9 7
17 18 18 17 17 17 20 32 39 32 29 32 41 43 42 41 39 41 42 43 42 42 37 33 28 25 21 18 14 10 7 5 5 3 2 4 11 12 11 8 11 7 5
6 8 11 13 13 14 19 25 37 35 30 30 35 36 41 42 41 42 43 43 43 41 35 31 28 25 22 18 16 15 11 6 6 4 2 3 4 6 7 12 6 6 6
Wind_Direction
177 167 175 168 159 154 153 153 153 153 151 140 136 132 128 126 120 118 119 119 111 105 114 130 148 147 140 125 115 105 93 85 90 95 82 77 68 66 77 83 92 90 83
165 167 170 169 162 158 160 157 159 158 155 148 141 139 130 122 119 120 121 125 120 112 107 115 156 158 126 117 110 96 91 97 96 86 85 81 75 66 66 67 77 61 91
163 167 168 166 165 160 163 164 164 162 157 152 144 146 136 126 120 118 119 125 127 125 120 104 99 108 111 107 97 90 106 100 92 85 87 85 72 60 61 84 68 26 76
165 167 168 170 170 166 163 165 168 167 163 156 149 149 140 130 122 117 116 121 125 129 117 108 105 103 104 100 99 107 108 102 90 90 83 88 71 57 59 78 50 86 132
167 169 168 173 171 164 163 167 170 167 165 162 156 150 143 134 127 122 120 119 123 128 120 116 119 118 114 109 103 120 116 112 93 105 109 67 59 76 49 19 15 39 252
169 170 167 174 171 169 169 172 168 167 166 162 162 151 148 142 136 131 130 128 126 124 123 120 119 118 116 113 112 124 127 118 86 120 104 73 60 50 46 39 47 37 358
170 171 167 174 175 174 172 169 164 163 162 166 159 156 156 152 149 141 139 137 134 130 131 126 121 118 112 107 107 113 133 106 96 125 127 111 78 48 44 29 28 38 29
172 171 170 177 179 180 179 173 170 169 167 165 167 168 166 163 162 159 153 149 147 143 138 140 132 124 114 110 114 121 135 125 93 117 130 128 84 60 49 44 70 56 51
175 175 175 178 183 185 186 182 178 182 175 174 172 168 172 175 176 177 169 166 160 157 150 151 142 135 120 117 112 117 112 120 131 115 112 104 81 70 70 92 78 73 60
179 183 183 184 188 189 191 189 182 190 184 180 176 179 183 186 190 192 185 177 170 164 159 155 153 147 136 123 111 102 96 116 124 115 98 81 88 102 95 84 83 71 64
182 189 190 191 193 195 196 193 190 193 194 191 190 191 192 197 202 196 196 184 180 171 168 166 165 154 145 127 113 106 98 115 124 102 90 105 107 105 88 75 75 75 70
183 190 193 194 198 197 199 198 195 196 200 197 197 197 199 200 196 195 195 192 188 179 173 173 170 169 176 170 145 162 16 112 123 109 112 120 112 97 80 82 79 74 71
189 189 196 197 203 201 201 201 199 201 204 205 204 203 202 197 187 192 194 195 192 186 182 180 178 172 176 173 189 217 237 132 125 117 126 128 111 94 99 85 80 76 72
190 193 198 200 206 204 206 204 203 204 206 209 211 210 206 201 198 196 200 199 197 193 193 184 183 182 180 175 184 201 183 159 144 140 144 143 115 107 104 93 83 76 64
199 198 200 202 209 207 209 209 208 208 209 211 212 214 213 212 208 204 205 206 202 197 191 189 190 192 191 190 198 207 172 159 151 149 150 162 139 116 108 98 89 75 60
215 213 211 211 213 210 212 214 214 213 214 213 214 215 217 218 217 211 209 210 204 198 197 198 197 199 211 205 196 185 164 162 160 157 155 158 159 137 115 98 87 76 62
221 224 219 221 218 215 216 218 218 218 217 217 217 216 216 218 218 219 216 211 204 201 201 195 199 203 209 194 181 182 165 170 173 168 166 161 161 155 130 105 83 71 58
231 226 229 226 223 222 221 220 220 220 219 220 219 219 217 217 217 221 216 212 203 204 201 197 203 203 203 198 182 180 178 177 182 180 173 168 162 162 159 126 99 73 52
247 237 230 228 223 225 223 224 223 224 221 222 220 219 218 218 220 217 212 208 205 200 198 207 206 206 200 193 180 179 186 189 189 187 185 181 177 179 183 73 59 36 12
259 256 242 227 226 230 222 220 224 221 225 223 223 220 220 219 219 214 214 206 201 202 202 205 209 202 197 189 176 169 179 198 190 194 196 193 198 199 207 230 290 335 343
263 259 252 228 224 224 207 204 211 214 221 222 223 224 222 221 221 214 209 201 203 204 211 206 197 192 175 177 152 147 143 158 185 196 206 209 208 207 213 209 266 308 315
258 261 253 248 233 223 212 213 210 220 220 224 221 222 223 221 216 211 209 204 206 206 204 204 203 187 177 178 166 131 124 199 204 207 208 211 213 205 204 215 269 302 309
256 251 251 252 247 224 219 214 216 211 211 214 219 220 220 220 218 213 210 208 207 207 208 207 206 201 176 177 195 164 117 216 163 206 197 193 194 193 196 241 290 302 306
260 257 261 253 247 238 219 215 209 204 203 216 222 223 220 220 219 213 212 209 207 207 211 213 208 203 194 175 165 191 184 150 163 204 196 188 185 194 217 288 303 309 309
269 263 258 250 249 242 232 223 221 219 220 223 218 220 216 214 217 215 212 210 210 209 210 210 205 204 201 191 178 165 165 160 158 131 194 221 226 232 253 281 310 301 297
246 230 223 220 228 236 238 230 226 225 220 214 213 208 213 214 212 213 212 211 212 211 206 205 204 205 202 202 198 183 176 164 179 161 150 218 246 256 251 289 274 274 292
Height
777 781 785 788 789 791 792 794 796 797 799 801 803 804 805 806 807 807 808 808 809 810 811 812 812 813 815 816 816 817 817 817 817 818 818 818 819 819 819 819 819 819 819
775 781 785 788 790 792 794 795 797 798 799 801 804 806 807 807 808 809 809 810 811 813 812 812 813 815 815 817 818 819 819 819 819 819 819 819 820 820 820 820 820 821 821
777 781 785 789 791 793 794 796 798 799 801 802 804 806 808 809 810 811 811 812 813 814 815 815 815 816 817 818 819 820 820 820 820 821 821 821 821 821 821 821 822 822 823
777 781 785 789 791 793 795 796 799 800 801 803 805 807 809 810 811 812 813 814 815 816 817 817 818 818 819 820 820 821 822 822 822 822 822 822 822 823 823 823 823 823 823
777 781 784 789 792 794 795 797 799 800 802 803 805 807 810 811 812 814 815 816 816 818 818 818 819 819 820 821 822 823 823 823 823 823 823 823 823 824 824 824 824 823 823
777 780 784 789 792 794 796 798 800 802 803 804 806 808 810 812 813 814 815 816 818 819 820 820 820 820 821 822 823 824 824 824 824 824 824 825 825 826 826 826 825 824 824
778 782 785 789 792 794 796 798 800 803 804 805 807 809 811 812 814 814 816 817 818 819 820 822 822 822 823 823 824 824 824 825 824 824 825 826 827 827 827 827 826 825 825
780 784 786 790 793 796 797 799 801 804 805 806 807 809 811 812 814 815 816 817 819 820 822 823 823 824 825 825 825 825 825 825 825 825 825 827 827 828 827 827 828 827 827
782 785 788 790 794 796 798 800 802 804 805 806 808 809 811 812 813 815 816 818 819 821 822 824 824 825 825 826 825 825 826 826 826 826 827 827 827 828 828 828 829 828 828
783 785 788 790 793 796 798 800 802 804 806 807 808 810 811 813 814 816 817 819 820 822 823 825 825 826 826 826 826 826 826 827 829 827 828 829 829 829 829 829 829 830 830
783 785 787 790 792 795 798 799 801 804 806 808 809 810 811 812 814 816 817 819 820 822 823 824 825 826 827 828 827 827 828 828 830 829 830 830 831 831 830 831 831 832 832
779 783 786 788 790 793 796 798 800 803 805 806 808 810 811 812 813 815 818 820 821 822 823 824 825 826 827 827 827 827 829 829 829 830 831 831 832 832 832 833 833 834 834
775 780 782 785 788 791 793 796 798 801 803 805 807 808 810 811 813 815 817 819 820 822 823 824 826 826 826 827 827 827 828 829 829 831 831 832 833 833 834 835 835 836 836
773 774 778 781 783 787 790 792 795 797 800 802 805 807 808 810 812 814 816 818 820 821 823 824 825 825 826 827 826 827 827 828 829 830 831 832 833 834 835 835 836 836 837
773 774 775 777 779 783 787 789 791 793 795 798 801 804 806 808 810 813 815 817 819 821 822 824 825 826 826 826 826 827 827 828 829 830 831 832 833 835 835 836 836 836 836
769 770 772 774 775 779 782 785 787 790 793 794 797 799 802 806 809 812 815 817 819 820 822 824 824 825 826 826 826 827 828 828 829 830 831 832 833 834 835 835 836 835 836
765 766 769 771 773 775 777 780 784 787 790 792 793 795 798 801 805 809 812 815 817 819 822 822 824 824 825 825 826 827 827 828 829 830 832 832 833 833 834 835 835 836 836
761 762 764 766 769 771 773 776 779 782 785 787 791 793 795 799 802 805 809 813 816 817 820 821 822 823 824 825 825 826 826 827 828 829 831 833 833 833 834 834 834 835 835
755 757 759 760 763 766 769 771 774 776 780 783 787 789 791 795 798 802 805 809 813 815 817 818 819 821 822 823 824 825 826 826 827 828 830 831 832 833 834 834 834 834 834
748 750 753 756 758 760 763 767 770 773 775 779 782 783 786 789 793 797 801 805 808 812 814 815 817 818 820 821 824 824 825 826 827 829 830 831 832 833 833 833 833 833 833
742 743 744 748 752 754 757 761 765 765 768 772 775 779 781 784 788 791 795 799 804 807 810 812 813 816 817 820 822 824 825 826 828 828 829 830 831 831 832 832 832 831 831
737 737 737 739 744 747 749 752 754 757 761 764 768 772 774 777 780 784 788 792 797 802 806 807 808 812 814 816 819 822 826 827 826 827 827 828 828 829 830 830 830 829 828
729 731 733 734 736 739 742 746 750 752 754 758 762 766 768 771 774 778 781 785 789 795 798 800 802 804 808 812 814 816 825 824 824 825 826 826 827 828 828 828 828 826 825
724 726 728 730 732 734 737 739 741 741 745 747 752 757 761 765 768 773 776 779 782 787 792 796 798 800 803 805 811 812 813 815 821 826 824 825 825 826 826 826 825 824 822
719 720 722 724 726 729 731 734 735 737 738 741 743 747 753 757 763 767 770 774 778 780 784 789 794 798 800 802 803 807 810 813 814 818 823 822 823 823 824 823 822 821 820
715 715 716 718 720 722 724 727 729 731 732 735 738 740 745 750 755 761 764 767 771 775 779 785 789 794 796 799 802 801 804 807 811 814 818 820 821 820 819 820 819 818 817